Regional Weather Roundup
Issued by NWS Charleston, WV

Current Version | Previous Version | Text Only | Print | Product List | Glossary On
Versions: 1 2 3 4 5 6 7 8 9 10 11 12 13 14 15 16 17 18 19 20 21 22 23 24 25 26 27 28 29 30 31 32 33 34 35 36 37 38 39 40 41 42 43 44 45 46 47 48 49 50
000
ASUS41 KRLX 210510
RWRRLX
Regional Weather Roundup
National Weather Service Charleston WV
100 AM EDT WED OCT 21 2020

Note: "fair" indicates few or no clouds below 12,000 feet with no
significant weather and/or obstructions to visibility.

WVZ003-210600-
Northern Panhandle of West Virginia

CITY           SKY/WX    TMP DP  RH WIND       PRES   REMARKS
WHEELING       PTCLDY    60  58  92 S5        30.16S
$$

WVZ009-210600-
Northwest West Virginia

CITY           SKY/WX    TMP DP  RH WIND       PRES   REMARKS
PARKERSBURG    FOG       58  57  97 CALM      30.15S VSB 1/4
$$

WVZ006-210600-
Western West Virginia

CITY           SKY/WX    TMP DP  RH WIND       PRES   REMARKS
HUNTINGTON     CLEAR     60  59  96 CALM      30.14R FOG
$$

WVZ015-210600-
West Central West Virginia

CITY           SKY/WX    TMP DP  RH WIND       PRES   REMARKS
CHARLESTON     PTCLDY    59  59 100 CALM      30.14F
$$

WVZ509-031-039-210600-
North Central West Virginia

CITY           SKY/WX    TMP DP  RH WIND       PRES   REMARKS
MORGANTOWN     PTCLDY    57  55  93 CALM      30.18S FOG
CLARKSBURG     FOG       55  55 100 CALM      30.17S VSB 3/4
BUCKHANNON     CLEAR     57  57 100 CALM      30.17F
$$

WVZ515-516-025-034-042-507-210600-
Southern West Virginia

CITY           SKY/WX    TMP DP  RH WIND       PRES   REMARKS
BECKLEY        CLEAR     61  54  77 SE8       30.23F
LOGAN          FAIR      63  63 100 CALM      30.17F
PINEVILLE        N/A     56  55  95 MISG      30.24F FOG
BLUEFIELD      PTCLDY    61  50  67 VRB5      30.25F
LEWISBURG      PTCLDY    54  51  92 CALM      30.26S
$$

WVZ525-526-210600-
Northern Mountains of West Virginia

CITY           SKY/WX    TMP DP  RH WIND       PRES   REMARKS
ELKINS         FOG       49  47  93 CALM      30.21F VSB 3/4
$$

WVZ502-504-052-210600-
Eastern Panhandle of West Virginia

CITY           SKY/WX    TMP DP  RH WIND       PRES   REMARKS
PETERSBURG     CLEAR     56  56 100 CALM      30.20S
CUMBERLAND     CLEAR     56  55  97 MISG      30.23S
MARTINSBURG    CLEAR     55  54  96 CALM      30.19F
$$

OHZ075-083-KYZ101-210600-
Southeast Ohio/Northeast Kentucky

CITY           SKY/WX    TMP DP  RH WIND       PRES   REMARKS
ATHENS         FOG      N/A N/A N/A CALM      30.14S VSB 1/4
JACKSON        FOG       61  61 100 CALM      30.15S VSB 1/4
ASHLAND        LGT RAIN  60  60 100 CALM      30.15R VSB 1/4
$$



USA.gov is the U.S. government's official web portal to all federal, state and local government web resources and services.